Home > Weather > Rancho Cucamonga > Past weeks

Flag for U.S.A. Weather for the Past 2 Weeks in Rancho Cucamonga, California, U.S.A.

Now
57 °F

Passing clouds.


Feels Like: 57 °F
Forecast: 56 / 85 °F
Wind: No wind

Location: Ontario International Airport

Current Time: Feb 10, 2016 at 1:48:04 AM

Latest Report: Feb 10, 2016 at 12:53 AM


Visibility: 10 mi

Pressure: 30.11 "Hg

Humidity: 36%

Dew point: 30 °F

Location of Rancho CucamongaLocation

Historic Weather in Rancho Cucamonga — Graph

°F

Rancho Cucamonga Temperature Yesterday

Maximum temperature yesterday: 86 °F (at 1:53 PM)
Minimum temperature yesterday: 50 °F (at 4:53 AM)
Average temperature yesterday: 68 °F

High & Low Weather Summary for the Past Weeks

 TemperatureHumidityPressure
High86 °F (Feb 8, 1:53 PM)93% (Jan 30, 9:53 PM)30.37 "Hg (Jan 30, 9:53 PM)
Low34 °F (Feb 2, 1:53 AM)7% (Feb 7, 2:53 PM)29.59 "Hg (Jan 31, 1:53 PM)
Average58 °F41%30.13 "Hg
* Reported Jan 25 11:53 PM — Feb 9 11:53 PM, Rancho Cucamonga, Weather by CustomWeather, © 2016

Note: Actual official high and low records may vary slightly from our data, if they occured in-between our weather recording intervals... More about our weather records

Advertising

Rancho Cucamonga Weather History for the Previous 24 Hours

 ConditionsComfort  
Time TempWeatherWind HumidityBarometerVisibility
11:53 PM
Tue, Feb 9
60 °FPassing clouds.7 mph32%30.10 "Hg10 mi
10:53 PM64 °FPassing clouds.5 mph26%30.10 "Hg10 mi
9:53 PM63 °FPassing clouds.No wind28%30.11 "Hg10 mi
8:53 PM67 °FPassing clouds.3 mph23%30.10 "Hg10 mi
7:53 PM70 °FPassing clouds.5 mph20%30.08 "Hg10 mi
6:53 PM74 °FPassing clouds.6 mph16%30.09 "Hg10 mi
5:53 PM78 °FPassing clouds.5 mph12%30.09 "Hg10 mi
4:53 PM82 °FPassing clouds.7 mph11%30.07 "Hg10 mi
3:53 PM86 °FPassing clouds.5 mph9%30.05 "Hg10 mi
2:53 PM86 °FPassing clouds.No wind8%30.05 "Hg10 mi
1:53 PM86 °FPassing clouds.3 mph9%30.05 "Hg10 mi
12:53 PM84 °FPassing clouds.No wind10%30.08 "Hg10 mi
11:53 AM82 °FSunny.3 mph10%30.12 "Hg10 mi
10:53 AM77 °FSunny.5 mph15%30.15 "Hg10 mi
9:53 AM73 °FSunny.6 mph19%30.16 "Hg10 mi
8:53 AM68 °FSunny.3 mph25%30.16 "Hg10 mi
7:53 AM62 °FSunny.No wind31%30.16 "Hg10 mi
6:53 AM51 °FSunny.8 mph41%30.15 "Hg10 mi
5:53 AM52 °FClear.3 mph38%30.14 "Hg10 mi
4:53 AM50 °FClear.No wind43%30.13 "Hg10 mi
3:53 AM58 °FClear.3 mph28%30.11 "Hg10 mi
2:53 AM52 °FClear.3 mph40%30.11 "Hg10 mi
1:53 AM56 °FClear.5 mph33%30.11 "Hg10 mi
Weather by CustomWeather, © 2016

See weather overviewHow to use our weather pages